Regional Weather Roundup
Issued by NWS

Home | Current Version | Previous Version | Graphics & Text | Print | Product List | Glossary On
Versions: 1 2 3 4 5 6 7 8 9 10 11 12 13 14 15 16 17 18 19 20 21 22 23 24 25 26 27 28 29 30 31 32 33 34 35 36 37 38 39 40 41 42 43 44 45 46 47 48 49 50
000
ASUS43 KTOP 251408
RWRKS

WEATHER ROUNDUP FOR KANSAS
NATIONAL WEATHER SERVICE GOODLAND KS
900 AM CDT WED APR 25 2018

NOTE:  "FAIR" INDICATES FEW OR NO CLOUDS BELOW 12,000 FEET WITH NO
SIGNIFICANT WEATHER AND/OR OBSTRUCTIONS TO VISIBILITY.

KSZ001>006-013>018-027>032-041>047-251500-
NORTHWEST KANSAS

CITY           SKY/WX    TMP DP  RH WIND       PRES   REMARKS
GOODLAND       SUNNY     37  30  75 NW14      30.34S WCI  28
HAYS           CLOUDY    41  37  86 N16       30.30R
HILL CITY      CLOUDY    41  38  89 N14       30.33S
RUSSELL        CLOUDY    41  41 100 N15       30.27S
$$

KSZ061>065-074>080-084>089-251500-
SOUTHWEST KANSAS

CITY           SKY/WX    TMP DP  RH WIND       PRES   REMARKS
DODGE CITY     CLOUDY    39  35  86 N13G24    30.30R WCI  31
ELKHART        SUNNY     42  36  77 N16       30.36S
GARDEN CITY    CLOUDY    37  34  89 N18       30.32F WCI  27
GREAT BEND     CLOUDY    41  39  93 N20       30.27S
LIBERAL        MOSUNNY   39  34  82 N18       30.35S WCI  30
PRATT          CLOUDY    41  38  90 N18G25    30.25F
$$

KSZ066>073-081>083-090>101-251500-
SOUTHEAST KANSAS

CITY           SKY/WX    TMP DP  RH WIND       PRES   REMARKS
CHANUTE        LGT RAIN  52  51  97 N3        30.16F FOG
COFFEYVILLE    LGT RAIN  52  51  97 N8        30.16S
HUTCHINSON     CLOUDY    44  43  96 N13G20    30.21F FOG
MEDICINE LODGE   N/A     44  41  89 NW15G23   30.24S
NEWTON         LGT RAIN  44  43  96 NW16      30.18F
PARSONS        LGT RAIN  52  51  97 NW5       30.17F FOG
WICHITA INTL   CLOUDY    46  44  93 NW13      30.19F
WICHITA JABRA  CLOUDY    45  45 100 NW13      30.19F
WICHITA MCCONL CLOUDY    46  45  98 NW12      30.19
WINFIELD       LGT RAIN  46  46 100 N15       30.21S
$$

KSZ007>012-019>026-033>040-048>060-102>105-251500-
NORTHEAST KANSAS

CITY           SKY/WX    TMP DP  RH WIND       PRES   REMARKS
CONCORDIA      LGT RAIN  42  40  92 N13       30.24S
EMPORIA        LGT RAIN  48  47  96 NW9       30.17S FOG
LAWRENCE       CLOUDY    50  48  93 N12       30.18R
MANHATTAN      LGT RAIN  48  45  89 N6        30.20S
MARYSVILLE     MIX PCPN  43  41  93 N14       30.23S
OLATHE IND     CLOUDY    50  48  93 N7        30.15F
OLATHE EXE     CLOUDY    50  47  89 N9        30.15S
SALINA         LGT RAIN  46  45  96 N17       30.23S FOG
TOPEKA BILLARD LGT RAIN  50  49  96 N7        30.18F FOG
TOPEKA FORBES  LGT RAIN  50  48  93 N12       30.17R FOG
$$




USA.gov is the U.S. government's official web portal to all federal, state and local government web resources and services.